Location: Bílá H?rka
(49.1540°N, 14.3039°E)
Time: 00:34:45
(UTC+00:00)

Daily predictions for brighter satellites

Satellite Brightness Start Highest point End
(mag) Time Altitude Azimuth Time Altitude Azimuth Time Altitude Azimuth
Cosmos 1937 Rocket 3.5 00:04:13 27° SSW 00:07:10 84° ESE 00:12:26 10° NNE
Cosmos 923 Rocket 4.1 00:02:56 10° NNW 00:08:07 58° WSW 00:11:01 25° S
Cosmos 1844 Rocket 3.9 00:09:58 17° SSE 00:13:24 31° ESE 00:18:15 10° NE
SL-16 R/B 4.5 00:09:34 10° ESE 00:14:38 27° NE 00:19:41 10° N
Cosmos 1898 Rocket 3.7 00:13:33 23° SW 00:16:45 63° WNW 00:21:54 10° NNE
Cosmos 1867 4.3 00:14:33 22° S 00:17:29 41° ESE 00:22:35 10° NE
GEOS 3 Rocket 3.5 00:13:39 10° NE 00:18:51 86° SE 00:22:15 22° SW
Cosmos 1536 Rocket 4.2 00:17:51 21° SSE 00:20:34 49° E 00:24:50 10° NNE
Meteor 2-1 Rocket 4.5 00:15:23 10° NNW 00:21:10 59° W 00:24:46 23° SSW
MOZ.5/SAFIR/RUBIN 5/SL-8 3.8 00:20:45 18° SSE 00:24:13 79° ENE 00:28:51 10° NNW
SL-19 R/B 3.3 00:23:33 10° NNE 00:26:29 87° WNW 00:27:19 42° SSW
CZ-2D R/B 3.3 00:26:33 10° NNE 00:31:24 35° E 00:35:45 12° SSE
COBE Rocket 4.2 00:26:48 10° NNE 00:31:58 69° E 00:35:31 20° S
Cosmos 1606 3.1 00:30:37 10° NNW 00:34:00 41° W 00:35:21 28° SW
Helios 1A Rocket 3.0 00:32:17 28° SSW 00:34:01 52° W 00:37:45 10° NNW
Cosmos 1900 4.4 00:31:44 23° SW 00:35:01 88° SE 00:40:09 10° NE
ADEOS II 3.7 00:31:07 10° NE 00:35:30 26° E 00:39:51 10° SSE
Cosmos 1869 3.8 00:34:34 10° NNW 00:38:02 38° W 00:39:31 26° SW
USA 234 4.4 00:32:51 10° ENE 00:39:00 46° N 00:45:10 10° WNW
Cosmos 1607 4.1 00:32:58 10° NW 00:39:27 82° NE 00:45:45 10° SE
CZ-2C R/B 3.1 00:34:45 10° SSE 00:39:59 63° ENE 00:45:23 10° N
SL-16 R/B 3.8 00:37:17 10° WNW 00:41:07 19° W 00:43:09 16° SW
Cosmos 2341 Rocket 4.3 00:36:54 20° SSW 00:41:09 57° WNW 00:47:19 10° N
Meteor 1-27 4.3 00:36:23 10° NNW 00:42:16 88° W 00:47:19 14° S
CENTAUR R/B 3.7 00:37:03 10° W 00:42:52 43° NNW 00:50:02 10° NE
Cosmos 1437 Rocket 3.0 00:41:31 22° S 00:43:49 59° E 00:47:31 10° NNE
Cosmos 1461 3.7 00:43:01 15° WSW 00:45:56 42° NW 00:49:38 10° NNE
Cosmos 1603 3.7 00:41:13 10° NNW 00:46:58 73° WSW 00:52:40 10° SSE
Cosmos 1680 Rocket 4.2 00:44:00 10° NW 00:48:44 36° WSW 00:51:38 20° SSW
Cosmos 2228 3.3 00:44:53 10° NNW 00:49:06 52° W 00:51:39 22° SSW
Cosmos 1943 3.6 00:47:06 10° NW 00:52:23 44° WSW 00:56:23 17° S
Cosmos 2227 Rocket 4.3 00:49:12 10° W 00:53:21 20° NW 00:57:30 10° N
Cosmos 1812 4.3 00:52:38 10° N 00:55:51 30° ENE 00:59:02 10° SE
Resurs 1-4 Rocket 2.5 00:53:37 10° NNE 00:58:52 61° ESE 01:03:21 14° S
NPP 3.7 00:54:13 10° NNE 00:59:39 78° ESE 01:04:01 16° S
Cosmos 1821 Rocket 4.0 00:56:51 17° SSW 01:01:41 82° W 01:07:55 10° N
USA 238 DEB 3.6 00:59:38 18° SSW 01:04:31 80° SE 01:11:20 10° NE
USA 238 3.6 00:59:40 18° SSW 01:04:33 79° SE 01:11:23 10° NE
Cosmos 724 4.3 00:59:00 10° NW 01:04:50 88° WSW 01:10:42 10° SE
BREEZE-M DEB (TANK) 4.2 01:03:30 10° W 01:04:15 12° WSW 01:04:15 12° WSW
Cosmos 1892 Rocket 4.4 01:06:24 10° SSE 01:10:34 47° E 01:14:52 10° NNE
BlueWalker 3 2.1 01:07:33 10° WNW 01:11:17 70° NNE 01:15:01 10° ESE
Cosmos 2058 Rocket 4.2 01:08:07 10° N 01:12:21 42° ENE 01:16:32 10° SSE
Cosmos 1048 Rocket 4.0 01:16:43 10° NNW 01:21:54 64° WSW 01:27:07 10° S
Cosmos 1833 Rocket 4.3 01:18:37 10° NNW 01:23:54 39° NE 01:29:09 10° ESE
Cosmos 494 Rocket 4.4 01:20:26 10° NW 01:25:24 44° WSW 01:30:21 10° S
Iridium 4 Rocket 4.3 01:22:09 10° N 01:26:31 44° E 01:31:13 10° SSE
Cosmos 921 Rocket 3.5 01:24:23 10° NW 01:28:18 38° WSW 01:31:45 12° SSW
Cosmos 1544 4.4 01:28:04 10° SSE 01:30:10 22° E 01:32:18 10° NE
IDEFIX/ARIANE 42P 2.9 01:28:03 10° N 01:33:12 56° WNW 01:37:48 13° SW
Cosmos 1934 Rocket 4.2 01:27:26 10° S 01:33:47 79° E 01:40:11 10° NNE
Cosmos 1125 Rocket 3.7 01:30:37 11° SSW 01:35:35 71° ESE 01:40:54 10° NNE
Cosmos 2123 Rocket 4.0 01:30:59 10° N 01:37:12 81° W 01:43:24 10° S
Cosmos 1844 3.9 01:32:48 13° SW 01:37:59 75° WNW 01:43:50 10° NNE
MSX 4.0 01:32:44 10° N 01:38:25 62° WNW 01:43:47 11° SSW
Cosmos 2263 Rocket 4.1 01:35:40 10° W 01:39:50 21° NW 01:43:59 10° N
Meteor 1-28 Rocket 3.0 01:37:38 10° SSE 01:41:09 84° WSW 01:44:44 10° NNW
COSMOS 2441 4.4 01:36:24 10° NNE 01:41:13 77° WNW 01:45:58 10° SSW
USA 267 4.4 01:38:47 10° ENE 01:44:30 31° SE 01:50:10 10° S
Cosmos 1606 Rocket 4.3 01:43:38 10° NNW 01:47:42 36° W 01:51:44 10° SSW
NOSS 3-2 (C) 4.4 01:43:31 10° WSW 01:48:46 42° NNW 01:55:02 10° NE
Cosmos 1782 4.0 01:48:32 10° N 01:52:14 42° ENE 01:55:53 10° SSE
CZ-2C R/B 3.3 01:47:57 10° N 01:53:15 60° WNW 01:58:14 10° SSW
Genesis I 3.0 01:52:36 10° NW 01:56:10 59° SW 01:59:44 10° SSE
Iridium 2 3.1 01:54:17 12° SSW 01:56:20 41° W 01:58:40 10° N
Cosmos 1844 Rocket 3.2 01:51:40 10° SW 01:57:05 49° NW 02:02:30 10° NNE
UNK 3.9 01:52:34 10° SSE 01:57:10 82° ENE 02:01:46 10° NNW
SL-16 R/B 2.6 01:51:31 10° S 01:57:43 69° WSW 02:03:57 10° NNW
SL-24 DEB 4.5 01:54:07 10° N 01:58:35 54° W 02:03:03 10° SSW
Cosmos 2150 Rocket 4.4 01:54:16 10° S 01:59:26 64° ESE 02:04:44 10° NNE
Cosmos 220 Rocket 3.9 01:55:56 10° NNW 02:00:06 86° ENE 02:04:13 10° SSE
Cosmos 1867 4.4 01:55:49 10° WSW 02:01:03 46° NW 02:06:21 10° NNE
Cosmos 1726 Rocket 4.3 01:57:32 10° NNW 02:01:34 35° W 02:05:33 10° SSW
Cosmos 614 Rocket 4.1 02:05:54 10° NNW 02:11:05 85° ENE 02:16:12 10° SSE
CZ-2D R/B 2.9 02:06:32 10° N 02:11:28 39° WNW 02:16:19 10° SW
Cosmos 1238 Rocket 2.3 02:08:26 10° NNW 02:11:40 53° W 02:14:34 10° S
USA 81 4.3 02:08:39 10° NNW 02:13:46 52° W 02:18:51 10° SSW
ALOS 2.3 02:09:15 10° N 02:13:53 76° WNW 02:18:29 10° SSW
ADEOS II 2.5 02:10:18 10° N 02:15:23 51° WNW 02:20:26 10° SW
